Naples, Italy

6:03 AM CEST on April 30, 2017 (GMT +0200)
Capodichino Mil

Weather History for LIRN - October, 2013

Change the Weather History Date:

Saturday, October 19, 2013

  Actual Average Record
Temperature  
Mean Temperature 65 °F -  
Max Temperature 75 °F 66 °F 82 °F (2012)
Min Temperature 55 °F 49 °F 50 °F (1996)
Growing Degree Days 15 (Base 50)    
Moisture  
Dew Point 53 °F    
Average Humidity 68    
Maximum Humidity 83    
Minimum Humidity 38    
Precipitation  
Precipitation 0.00 in 0.20 in - ()
Sea Level Pressure  
Sea Level Pressure 30.18 in    
Wind  
Wind Speed 3 mph ()    
Max Wind Speed 7 mph    
Max Gust Speed -    
Visibility 6.2 miles    
Events      
Averages and records for this station are not official NWS values.
T = Trace of Precipitation, MM = Missing Value Source: Averaged Metar Reports

Daily Weather History Graph

Daily Weather History Graph

Search for Another Location

Airport or City:

Trip Planner

Search our weather history database for the weather conditions in past years. The results will help you decide how hot, cold, wet, or windy it might be!

Date:

Astronomy

Oct. 19, 2013 Rise Set
Actual Time 7:18 AM CEST 6:16 PM CEST
Civil Twilight 6:50 AM CEST 6:44 PM CEST
Nautical Twilight 6:18 AM CEST 7:16 PM CEST
Astronomical Twilight 5:46 AM CEST 7:47 PM CEST
Moon 6:32 PM CEST (10/19) 7:38 AM CEST (10/19)
Length of Visible Light 11h 53m
Length of Day
10h 57m
Full, 100% of the Moon is Illuminated
Oct 19
Full
Oct 27
Last Quarter
Nov 3
New
Nov 10
First Quarter
Nov 17
Full

Hourly Weather History & Observations

Time (CEST) Temp. Dew Point Humidity Pressure Visibility Wind Dir Wind Speed Gust Speed Precip Events Conditions
12:20 AM 59.0 °F 53.6 °F 82% 30.09 in - Variable 2.3 mph - N/A   Clear
12:50 AM 59.0 °F 53.6 °F 82% 30.12 in - NNW 2.3 mph - N/A   Clear
1:20 AM 59.0 °F 51.8 °F 77% 30.12 in - North 2.3 mph - N/A   Clear
1:50 AM 59.0 °F 53.6 °F 82% 30.12 in - NNW 3.5 mph - N/A   Clear
2:20 AM 59.0 °F 51.8 °F 77% 30.12 in - NNE 3.5 mph - N/A   Clear
2:50 AM 59.0 °F 51.8 °F 77% 30.12 in - North 3.5 mph - N/A   Clear
3:20 AM 59.0 °F 53.6 °F 82% 30.12 in - North 3.5 mph - N/A   Clear
3:50 AM 59.0 °F 51.8 °F 77% 30.12 in - North 2.3 mph - N/A   Clear
4:20 AM 59.0 °F 50.0 °F 72% 30.12 in - NNE 3.5 mph - N/A   Clear
4:50 AM 59.0 °F 48.2 °F 67% 30.12 in - North 3.5 mph - N/A   Clear
5:20 AM 59.0 °F 50.0 °F 72% 30.12 in - NNW 4.6 mph - N/A   Clear
5:50 AM 57.2 °F 48.2 °F 72% 30.12 in - NNW 3.5 mph - N/A   Clear
6:20 AM 55.4 °F 48.2 °F 77% 30.12 in - NW 3.5 mph - N/A   Clear
6:50 AM 55.4 °F 48.2 °F 77% 30.12 in - North 3.5 mph - N/A   Clear
7:20 AM 57.2 °F 48.2 °F 72% 30.12 in - NNE 4.6 mph - N/A   Clear
7:50 AM 55.4 °F 48.2 °F 77% 30.15 in 6.2 mi North 3.5 mph - N/A   Partly Cloudy
8:20 AM 57.2 °F 48.2 °F 72% 30.15 in 6.2 mi WNW 3.5 mph - N/A   Partly Cloudy
8:50 AM 60.8 °F 50.0 °F 68% 30.18 in 6.2 mi WNW 3.5 mph - N/A   Partly Cloudy
9:50 AM 64.4 °F 51.8 °F 64% 30.18 in - NE 5.8 mph - N/A   Clear
10:20 AM 64.4 °F 50.0 °F 59% 30.18 in - NNE 5.8 mph - N/A   Clear
10:50 AM 66.2 °F 50.0 °F 56% 30.21 in - NE 4.6 mph - N/A   Clear
11:20 AM 69.8 °F 51.8 °F 53% 30.21 in - Variable 2.3 mph - N/A   Clear
11:50 AM 71.6 °F 51.8 °F 50% 30.21 in - Variable 2.3 mph - N/A   Clear
12:20 PM 73.4 °F 50.0 °F 44% 30.21 in - Variable 1.2 mph - N/A   Clear
12:50 PM 75.2 °F 50.0 °F 41% 30.21 in - SSW 4.6 mph - N/A   Clear
1:20 PM 75.2 °F 48.2 °F 38% 30.18 in - SSW 5.8 mph - N/A   Clear
1:50 PM 73.4 °F 50.0 °F 44% 30.18 in - South 5.8 mph - N/A   Clear
2:20 PM 73.4 °F 51.8 °F 47% 30.18 in - South 5.8 mph - N/A   Clear
2:50 PM 73.4 °F 53.6 °F 50% 30.18 in - SSW 6.9 mph - N/A   Clear
3:20 PM 75.2 °F 53.6 °F 47% 30.21 in - SSW 5.8 mph - N/A   Clear
3:50 PM 73.4 °F 53.6 °F 50% 30.21 in - South 4.6 mph - N/A   Clear
4:20 PM 73.4 °F 55.4 °F 53% 30.21 in - South 4.6 mph - N/A   Clear
4:50 PM 71.6 °F 57.2 °F 60% 30.18 in - SSW 5.8 mph - N/A   Clear
5:20 PM 71.6 °F 57.2 °F 60% 30.21 in - SSW 4.6 mph - N/A   Clear
5:50 PM 71.6 °F 59.0 °F 64% 30.21 in - South 3.5 mph - N/A   Clear
6:20 PM 69.8 °F 59.0 °F 68% 30.21 in - South 2.3 mph - N/A   Clear
6:50 PM 68.0 °F 59.0 °F 73% 30.21 in - South 2.3 mph - N/A   Clear
7:20 PM 68.0 °F 59.0 °F 73% 30.21 in - Variable 2.3 mph - N/A   Clear
7:50 PM 68.0 °F 60.8 °F 78% 30.21 in - SSW 2.3 mph - N/A   Clear
8:20 PM 64.4 °F 57.2 °F 77% 30.24 in - NNE 1.2 mph - N/A   Clear
8:50 PM 66.2 °F 59.0 °F 78% 30.24 in - Variable 1.2 mph - N/A   Clear
9:20 PM 64.4 °F 59.0 °F 83% 30.24 in - Variable 1.2 mph - N/A   Clear
9:50 PM 64.4 °F 59.0 °F 83% 30.24 in - East 2.3 mph - N/A   Clear
10:20 PM 64.4 °F 57.2 °F 77% 30.24 in - Variable 2.3 mph - N/A   Clear
10:50 PM 62.6 °F 57.2 °F 82% 30.27 in - North 2.3 mph - N/A   Clear
11:20 PM 62.6 °F 57.2 °F 82% 30.27 in - Variable 1.2 mph - N/A   Clear
11:50 PM 62.6 °F 55.4 °F 77% 30.27 in - North 2.3 mph - N/A   Clear